Location: Colorado Springs
(38.8340°N, 104.8210°W)
Time: 09:45:50
(UTC-06:00)

Envisat - Pass Details

Date: 11 October 2017
Orbit: 764 x 766 km, 98.2° (Epoch: 22 October)

Event Time Altitude Azimuth Distance (km) Brightness Sun altitude
Exits shadow 21:51:09 20° 297° (WNW) 1,728 5.3 -39.8°
Drops below altitude 10° 21:53:23 10° 319° (NW) 2,307 6.1 -40.2°
Sets 21:56:07 0° 333° (NNW) 3,238 6.9 -40.7°
